Aérodrome :
LOGIN :

S'inscrire | Disclaimer

   EN    FR    IT 

 










Légende :    VFR   VFR Marginal   IFR   IFR Intensif   IFR Très Intensif
Visi : 
Plafond : 
>= 8 km
>= 3000ft
5 à 8 km
1000 à 3000 ft
1500m à 5 km
500 à 1000 ft
800 à 1500m
200 à 500 ft
< 800m
< 200 ft
Symboles :   Orages  Brouillard  Fortes neiges  Fortes précipitations  Vent > 20 kt
SIGMETs :   Divers  Orages  Givrage  Turbulence  Onde Orograph.  Cendres Volcan.






- Altitude de l'aérodrome : 17 ft
- Code IATA : DND


EGPN - Dundee

DERNIER METAR :
  • 240820Z 29002KT 9999 FEW040 08/05 Q0994

METARs EXPIRÉS :
  • 240750Z 31002KT 9999 FEW040 06/04 Q0994
  • 240720Z 30003KT 9999 FEW030 05/04 Q0994
  • 240650Z 31003KT 9999 FEW020 05/03 Q0993
  • 240620Z 31003KT 9999 FEW012 05/03 Q0993
  • 240550Z 31003KT 9999 FEW010 05/03 Q0993

TAF TAF EGPN
Valide du 24 à 06h jusqu'au 24 à 15h UTC


240601Z 2406/2415 VRB04KT 9999 FEW030
BECMG 2408/2411 03010KT



MET'MAP, la Météo Aéronautique d'un coup d'oeil ! - Copyright ORBIFLY Décembre 2007 - Disclaimer

ORBIFLY MET'MAP TEAM :

Programmation & Développement : Alexandra Zaïnal
Sur une idée originale de : Baudouin d'Aumeries
Assistance à la programmation : Marc-Olivier Méhu
Soutien technique & logistique : Manuel Goepfert

Contact : metmap@orbifly.com




SOURCES & CREDITS :

   NOAA